Find Starlink 30198

NORAD ID: 57290 Int'l Des: 2023-096 Owner: SPXS Country: US Constellation: starlink operational
LEOCIRCULAR

当前视图

正在加载3D地球...

About Starlink 30198

Starlink 30198 (NORAD 57290) is a starlink constellation satellite (v2 mini) launched Jul 10, 2023 by SPXS of US. It operates in LEO, CIRCULAR orbit with a mass of 730.00 kg.

关于 Starlink 30198

正在加载描述...

即将过境

Passes for default location (London). Set your location on the main map for personalized predictions.

高度历史

Loading altitude history...

两行轨道根数

1 57290U 23096A 26162.42324111 .00028740 00000-0 11287-2 0 9990
2 57290 42.9900 57.9593 0006884 213.3778 146.6639 15.25162671161902
Epoch: Jun 11, 2026 • Age: 41 hours

当前状态

高度 492.7 km
速度 7.62 km/s
星下点 35.92°N, 137.07°W
发射日期 Jul 10, 2023
运行时间 2.9 years
类型 internet

技术详情

分类 Payload
质量 730.00 kg
干质量 700.00 kg
总质量 730.00 kg
长度 0.30 m
直径 4.10 m
跨度 29.00 m
形状 Box + pan
制造商 SPXS
平台类型 Starlink V2M
阶段状态 In Orbit
所有者/国家 SPXS/US

Most Searched